Regional Weather Roundup
Issued by NWS Grand Forks, ND

Home | Current Version | Previous Version | Text Only | Print | Product List | Glossary Off
Versions: 1 2 3 4 5 6 7 8 9 10 11 12 13 14 15 16 17 18 19 20 21 22 23 24 25 26 27 28 29 30 31 32 33 34 35 36 37 38 39 40 41 42 43 44 45 46 47 48 49 50

000
ASUS43 KFGF 030910
RWRFGF
PRAIRIE TO PINES  WEATHER ROUNDUP
NATIONAL WEATHER SERVICE EASTERN NORTH DAKOTA/GRAND FORKS ND
300 AM CST SAT DEC 03 2016

 **SATELLITE DATA USED TO AUGMENT SKY COVER AT AUTOMATED STATIONS**
 *****  WEATHER ACROSS EASTERN NORTH DAKOTA  *****

CITY           SKY/WX    TMP DP  RH WIND       PRES   REMARKS
GRAND FORKS    CLOUDY    29  20  69 S13       30.23S WCI  19
GRAND FRKS AFB CLOUDY    27  20  73 SW10      30.22S WCI  18
GRAND FRKS NWS   N/A     28 N/A N/A S14         N/A  WCI  17
DEVILS LAKE    CLOUDY    25  21  85 S12       30.14F WCI  14
FARGO          CLOUDY    27  18  69 S12       30.27F WCI  17
WAHPETON ARPT  CLOUDY    27  19  74 SW8       30.29S WCI  18
$$

 ***** WEATHER ACROSS CENTRAL AND WESTERN NORTH DAKOTA  *****

CITY           SKY/WX    TMP DP  RH WIND       PRES   REMARKS
BISMARCK       NOT AVBL
MINOT          NOT AVBL
JAMESTOWN      CLOUDY    26  23  88 S9        30.17F WCI  17
MINOT AFB      CLEAR     20  18  91 SE13      30.00F WCI   7
GARRISON         N/A     23  22  96 SE7       30.04F WCI  15
WILLISTON      NOT AVBL
DICKINSON      CLEAR     16  14  92 S10       29.97F WCI   4
HETTINGER      CLEAR     21  19  92 S8        30.03F WCI  11
$$

 *****  OTHER AIRPORT OBSERVATIONS IN OUR AREA  *****

CITY           SKY/WX    TMP DP  RH WIND       PRES   REMARKS
WALHALLA         N/A     27  27 100 S7        30.18F WCI  19
GRAFTON AIRPOR CLOUDY    28  23  80 S9        30.23S WCI  20
VALLEY CITY AR CLOUDY    23  23 100 S7        30.22F WCI  15
CANDO          CLOUDY    27  23  86 S14G20    30.13F WCI  15
CAVALIER APRT    N/A     28  23  80 S12       30.19S WCI  18
GWINNER        CLOUDY    28  23  80 S7        30.24F WCI  21
SHEYENNE NWR     N/A     24  16  72 S6        29.95S WCI  17
ROLLA          CLOUDY    23  23 100 S13       30.07F WCI  11
 ***** THE ABOVE OBSERVATIONS ARE NON NWS ARE NOT QUALITY
       CONTROLLED AND MAY MIS-REPORT RAIN FOR SNOW...
$$

  *****  WEATHER ACROSS NORTHERN MINNESOTA  *****

CITY           SKY/WX    TMP DP  RH WIND       PRES   REMARKS
FLAG ISLAND    CLOUDY    25  19  80 SW6       30.21F WCI  18
WARROAD        CLOUDY    25  21  86 SE3       30.22F
ROSEAU         CLOUDY    27  21  80 S5        30.22S WCI  21
HALLOCK        CLOUDY    30  27  86 S8        30.20F WCI  23
THF RVR FALLS  CLOUDY    27  20  75 SW7       30.24  WCI  19
BAUDETTE       CLOUDY    24  21  88 SW5       30.23S WCI  18
WASKISH        CLOUDY    25  21  86 CALM      30.24S
CROOKSTON      CLOUDY    28  21  74 S10       30.25S WCI  19
GREENBUSH NDAW   N/A     28  25  86 S6          N/A  WCI  22
$$
  *****  WEATHER ACROSS CENTRAL AND WEST MINNESOTA  *****

CITY           SKY/WX    TMP DP  RH WIND       PRES   REMARKS
FOSSTON        CLOUDY    25  19  80 SW7       30.24S WCI  17
BEMIDJI        NOT AVBL
PARK RAPIDS    CLOUDY    25  16  68 SW6       30.25R WCI  18
ELBOW LAKE     CLOUDY    25  19  80 SW5       30.28F WCI  19
WADENA         CLOUDY    25  18  74 SW5       30.26R WCI  19
DETROIT LAKES  CLOUDY    27  21  80 SW6       30.26S WCI  20
MOORHEAD       CLOUDY    27  19  74 SW8       30.28F WCI  18
FERGUS FALLS   CLOUDY    25  19  80 S9        30.32S WCI  15
MORRIS MN      NOT AVBL
STAPLES        CLOUDY    23  18  80 SW6       30.27R WCI  16
$$
  *****  WEATHER ELSEWHERE ACROSS MINNESOTA  *****

CITY           SKY/WX    TMP DP  RH WIND       PRES   REMARKS
DULUTH         CLOUDY    27  24  89 NW5       30.24  WCI  22
INTRNTL FALLS  CLOUDY    23  21  92 CALM      30.24
ELY            CLOUDY    23  21  93 NW3       30.23S
CLOQUET        CLOUDY    27  21  80 CALM      30.25S
WHEATON        CLOUDY   N/A N/A N/A SW5       30.30F
BRAINERD       CLOUDY    25  20  81 CALM      30.26F
HIBBING        CLOUDY    24  20  84 W3        30.24S
ALEXANDRIA     CLOUDY    24  18  77 VRB3      30.28S
SAINT CLOUD    CLOUDY    28  22  78 S3        30.28S
MINNEAPOLIS    CLOUDY    30  22  72 W7        30.30S WCI  23
$$

  *****  WEATHER ACROSS SOUTH DAKOTA  *****

CITY           SKY/WX    TMP DP  RH WIND       PRES   REMARKS
SIOUX FALLS    CLOUDY    29  26  89 S3        30.30R
BROOKINGS      CLEAR     21  18  88 SE5       30.25F WCI  15
WATERTOWN      PTCLDY    22  17  81 SW3       30.23F
HURON          NOT AVBL
SISSETON         N/A     26  18  71 W3        30.26F
ABERDEEN       CLOUDY    28  24  85 S7        30.23F WCI  21
MITCHELL       PTCLDY    26  25  96 S8        30.28S WCI  18
PIERRE         NOT AVBL
MOBRIDGE       CLOUDY    28  25  88 S12       30.12F FOG     WCI  18
RAPID CITY     CLEAR     20  17  88 SE6       30.03F WCI  12
$$

  *****  SOME WEATHER IN NEARBY STATES *****

CITY           SKY/WX    TMP DP  RH WIND       PRES   REMARKS
GLASGOW MT     PTCLDY    27  20  75 CALM      29.83
GREAT FALLS MT CLOUDY    31  21  66 SW22G30   29.82  WCI  18
CHEYENNE WY    NOT AVBL
SCOTTSBLUFF NE CLOUDY    28  20  71 S8        30.11  WCI  20
OMAHA NE       NOT AVBL
DES MOINES IA  NOT AVBL
DAVENPORT IA   NOT AVBL
CHICAGO IL     CLOUDY    33  23  66 W7        30.33R
EAU CLAIRE WI  CLOUDY    30  25  81 W5        30.29R
LA CROSSE WI   CLOUDY    32  21  64 W7        30.33R
$$

  *****  SOME NATIONAL WEATHER *****

CITY           SKY/WX    TMP DP  RH WIND       PRES   REMARKS
LA GUARDIA NY  PTCLDY    45  29  53 NW16G24   29.93S
RALEIGH NC     PTCLDY    42  40  92 MISG      30.23S
ATLANTA GA     NOT AVBL
NEW ORLEANS LA NOT AVBL
OKLAHOMA CITY  CLOUDY    46  44  93 NE7       30.20S
ALBUQUERQUE NM FLURRIES  34  30  85 NE6       30.11S
SALT LAKE CITY MOCLDY    26  18  71 SE7       30.28  WCI  18
LOS ANGELES CA CLEAR     57  12  17 SE7       30.08F
BOISE ID       CLOUDY    34  24  67 S6        30.26
SEATTLE WA     NOT AVBL
$$

*** WEATHER ACROSS MANITOBA...SASKATCHEWAN AND ONTARIO ***
                ***ONTARIO***

CITY           SKY/WX    TMP DP  RH WIND       PRES   REMARKS
GERALDTON      FLURRIES  21  21 100 W3        30.20S
THUNDER BAY    CLOUDY    28  25  86 SW2       30.25S
SIOUX LOOKOUT  FRZ DRZL  23  21  93 VRB6      30.21S WCI  16
TORONTO        PTCLDY    34  28  80 NW13      30.09R WCI  25
BIG TROUT LK   LGT SNOW  12  10  92 W5        30.26S WCI   4
PICKLE LAKE    NOT AVBL
DRYDEN         CLOUDY    21  21 100 SW6       30.20S WCI  14
KENORA         LGT SNOW  19  18  93 E2        30.20F VSB 3/4
$$
                *** MANITOBA***

CITY           SKY/WX    TMP DP  RH WIND       PRES   REMARKS
BRANDON        LGT SNOW  25  23  93 SE9       30.05F WCI  15
DAUPHIN        FLURRIES  28  25  86 SE7       30.03F WCI  21
ISLAND LAKE    NOT AVBL
PILOT MOUND      N/A     25  21  86 S17         N/A  WCI  11
THE PAS        CLOUDY    28  27  93 SE12      29.99F WCI  18
THOMPSON       FLURRIES  18  14  86 VRB2      30.12S
WINNIPEG       FLURRIES  27  25  93 S9        30.18F WCI  17
LYNN LAKE      CLOUDY    19  19 100 S8        29.96F WCI   9
CHURCHILL      CLEAR      0  -2  92 S8        30.15S WCI -15
GILLAM         LGT SNOW   9   5  85 SW5       30.20F WCI   0
$$
                ***SASKATCHEWAN***

CITY           SKY/WX    TMP DP  RH WIND       PRES   REMARKS
ESTEVAN        PTCLDY    25  21  86 S13       29.90F WCI  13
KINDERSLEY     PTCLDY    21  19  93 NE5       29.63F WCI  15
LLOYDMINSTER   CLOUDY    21  21 100 SE9       29.69S WCI  11
PRINCE ALBERT  FLURRIES  27  21  80 SE6       29.82F WCI  20
REGINA         PTCLDY    19  18  93 SE14      29.82F WCI   6
YORKTON        CLOUDY    27  25  93 SE13G18   29.90F FOG     WCI  16
N. BATTLEFORD  CLOUDY    23  23 100 E15       29.72F WCI  10
LA RONGE       CLOUDY    28  23  80 S16       29.85F WCI  17
SASKATOON      MOCLDY    23  21  93 E12G17    29.74F WCI  12
SWIFT CURRENT  CLOUDY    30  28  93 S18G24    29.65F WCI  18
$$
NOTE: THESE ARE AUTOMATED STATIONS WITH LIMITED QUALITY CONTROL
      "FAIR" INDICATES FEW OR NO CLOUDS BELOW 12,000 FEET WITH NO
      SIGNIFICANT WEATHER AND/OR OBSTRUCTIONS TO VISIBILITY.
      SKY/WX - SKY CONDITION AND SIGNIFICANT WEATHER.
      TMP - AIR TEMPERATURE.    DP   - DEWPOINT TEMPERATURE.
      RH  - RELATIVE HUMIDITY.  PRES - PRESSURE.
      HX  - HEAT INDEX.         WCI  - WIND CHILL INDEX.
$



USA.gov is the U.S. government's official web portal to all federal, state and local government web resources and services.